User: anonymous   Login
Location: Karaa?a�
(36.7158°N, 30.4165°E)
Time: 17:37:23
(UTC+00:00)
Language:

OAO 1 - Orbit

View from above orbital plane
View from above orbital plane
View from above satellite
View from above satellite

Ground track
Ground track

The orbit data is extracted from the following two-line orbital elements,

1  2142U 66031A   20195.87711536 +.00000028 +00000-0 +16648-4 0  9999
2  2142 035.0455 271.9408 0007683 256.9799 103.0030 14.33890432840203
Epoch (UTC): 13 July 2020 21:03:02
Eccentricity: 0.0007683
inclination: 35.0455°
perigee height: 773 km
apogee height: 784 km
right ascension of ascending node: 271.9408°
argument of perigee: 256.9799°
revolutions per day: 14.33890432
mean anomaly at epoch: 103.0030°
orbit number at epoch: 84020

The dashed part of the orbit path shows where the satellite is in the earth's shadow,  

DLR